This is the latest recevied weather packets stored in our database for station/object KN6ZYR. If no packets are shown the sender has not sent any weather packets the latest 10 day(s).
| Time | Temp. | Humidity | Pressure | Rain* | Wind** | Luminosity | Snow |
|---|---|---|---|---|---|---|---|
| 1777600379 | 22.78° C | 16% | 1016.8 hPa | 0 mm | - | 35 W/m² | - |
| 1777600075 | 22.78° C | 15% | 1016.8 hPa | 0 mm | - | 37 W/m² | - |
| 1777599771 | 22.78° C | 16% | 1017.1 hPa | 0 mm | - | 38 W/m² | - |
| 1777599467 | 22.78° C | 16% | 1017.1 hPa | 0 mm | - | 40 W/m² | - |
| 1777599164 | 22.78° C | 16% | 1017.2 hPa | 0 mm | - | 42 W/m² | - |
| 1777598864 | 22.78° C | 16% | 1017 hPa | 0 mm | - | 43 W/m² | - |
| 1777598563 | 22.78° C | 15% | 1017.2 hPa | 0 mm | - | 44 W/m² | - |
| 1777598258 | 22.78° C | 15% | 1017.2 hPa | 0 mm | - | 63 W/m² | - |
| 1777597957 | 22.78° C | 15% | 1017 hPa | 0 mm | - | 45 W/m² | - |
| 1777597656 | 23.33° C | 15% | 1017.1 hPa | 0 mm | - | 47 W/m² | - |
| 1777597351 | 23.33° C | 14% | 1017 hPa | 0 mm | - | 43 W/m² | - |
| 1777597047 | 23.33° C | 15% | 1017 hPa | 0 mm | - | 44 W/m² | - |
| 1777596744 | 23.33° C | 15% | 1017 hPa | 0 mm | - | 50 W/m² | - |
| 1777596440 | 23.33° C | 15% | 1017 hPa | 0 mm | - | 56 W/m² | - |
| 1777596138 | 23.33° C | 15% | 1017 hPa | 0 mm | - | 45 W/m² | - |
| 1777595834 | 23.33° C | 15% | 1017 hPa | 0 mm | - | 47 W/m² | - |
| 1777595529 | 23.89° C | 14% | 1017.3 hPa | 0 mm | - | 82 W/m² | - |
| 1777595226 | 23.33° C | 15% | 1017.1 hPa | 0 mm | - | 61 W/m² | - |
| 1777594921 | 23.89° C | 15% | 1017.2 hPa | 0 mm | - | 50 W/m² | - |
| 1777594618 | 23.89° C | 15% | 1017.3 hPa | 0 mm | - | 50 W/m² | - |
| 1777594314 | 23.89° C | 15% | 1017.2 hPa | 0 mm | - | 77 W/m² | - |
| 1777594011 | 23.89° C | 15% | 1017.1 hPa | 0 mm | - | 295 W/m² | - |
| 1777593707 | 23.89° C | 14% | 1017.4 hPa | 0 mm | - | 309 W/m² | - |
| 1777593403 | 23.89° C | 14% | 1017 hPa | 0 mm | - | 326 W/m² | - |
| 1777593102 | 23.89° C | 15% | 1017.3 hPa | 0 mm | - | 339 W/m² | - |
* Rain latest hour (hover to see other rain measurements)
** Current wind speed in m/s (hover to see current wind gust speed)